User: anonymous
Location: Caltech
(34.1382°N, 118.1253°W)
Time: 02:26:23
(UTC-07:00)
Language:

Cosmos 2084 - Orbit

View from above orbital plane
View from above orbital plane
View from above satellite
View from above satellite

Ground track
Ground track

The orbit data is extracted from the following two-line orbital elements,

1 20663U 90055A   14211.76714032  .00000627  00000-0  84059-4 0  1789
2 20663 062.7970 135.4172 0036483 301.6419 058.1116 14.89170922302911
Epoch (UTC): 30 July 2014 18:24:40
Eccentricity: 0.0036483
inclination: 62.7970°
perigee height: 575 km
apogee height: 626 km
right ascension of ascending node: 135.4172°
argument of perigee: 301.6419°
revolutions per day: 14.89170922
mean anomaly at epoch: 58.1116°
orbit number at epoch: 30291

The dashed part of the orbit path shows where the satellite is in the earth's shadow,  

DLR